Tracking 28911 objects as of 22-May-2024
HD Live streaming from Space Station
objects crossing your sky now

STARLINK-4577

Track STARLINK-4577 now!
10-day predictions
STARLINK-4577 is classified as:


NORAD ID: 53564
Int'l Code: 2022-101AP
Perigee: 545.9 km
Apogee: 547.9 km
Inclination: 53.2 °
Period: 95.4 minutes
Semi major axis: 6917 km
RCS: Unknown
Launch date: August 19, 2022
Source: United States (US)
Launch site: AIR FORCE EASTERN TEST RANGE (AFETR)
Your satellite tracking list
Your tracking list is empty




NASA's NSSDC Master Catalog

Two Line Element Set (TLE):
1 53564U 22101AP  24142.31924415 -.00002604  00000-0 -14561-3 0  9995
2 53564  53.2168 125.2368 0001474 103.1936 256.9221 15.08834911 97201
Source of the keplerian elements: AFSPC